Location: Les Salelles
(44.4192°N, 4.1044°E)
Time: 10:02:50
(UTC+00:00)

CZ-4C R/B - Pass Details

Date: 20 January 2021
Orbit: 617 x 1385 km, 63.4° (Epoch: 28 February)

Event Time Altitude Azimuth Distance (km) Brightness Sun altitude
Rises 17:06:35 0° 246° (WSW) 3,063 8.1 -5.7°
Reaches altitude 10° 17:08:57 10° 256° (WSW) 2,229 6.2 -6.1°
Maximum altitude 17:13:36 35° 322° (NW) 1,306 3.4 -6.8°
Drops below altitude 10° 17:19:09 10° 27° (NNE) 2,666 4.4 -7.8°
Enters shadow 17:21:20 - 34° (NE) 3,439 4.9 -8.1°
